Regional Weather Roundup
Issued by NWS Newport/Morehead, NC

Current Version | Previous Version | Text Only | Print | Product List | Glossary Off
Versions: 1 2 3 4 5 6 7 8 9 10 11 12 13 14 15 16 17 18 19 20 21 22 23 24 25 26 27 28 29 30 31 32 33 34 35 36 37 38 39 40 41 42 43 44 45 46 47 48 49 50
000 ASUS42 KMHX 221212 RWRMHX WEATHER ROUNDUP FOR EASTERN NORTH CAROLINA NATIONAL WEATHER SERVICE NEWPORT/MOREHEAD CITY NC 800 AM EDT FRI MAY 22 2015 NOTE: "FAIR" INDICATES FEW OR NO CLOUDS BELOW 12,000 FEET WITH NO SIGNIFICANT WEATHER AND/OR OBSTRUCTIONS TO VISIBILITY NCZ015>017-031-032-045>047-102-103-221300- NORTH COAST CITY SKY/WX TMP DP RH WIND PRES REMARKS EDENTON SUNNY 58 51 78 N9G21 30.11R ELIZABETH CITY MOSUNNY 58 50 75 NW14 30.09R KITTY HAWK PTSUNNY 58 52 81 NW8 30.07R MANTEO PTSUNNY 58 50 75 NW12G18 30.09R $$ NCZ045>047-081-094-103-104-221300- CENTRAL COAST CITY SKY/WX TMP DP RH WIND PRES REMARKS FRISCO PTSUNNY 60 52 74 N8G18 30.07R SWANQUARTER N/A 59 N/A N/A N7G14 30.06S $$ NCZ095-097-098-100-101-221300- SOUTHERN COAST CITY SKY/WX TMP DP RH WIND PRES REMARKS BEAUFORT PTSUNNY 61 56 83 N9 30.10R CEDAR ISLAND N/A 63 N/A N/A N28 30.15R JACKSONVILLE CLOUDY 60 54 80 N10 30.12R PINEY ISLAND CLOUDY N/A N/A N/A N17 30.10R WILMINGTON PTSUNNY 62 56 80 N10 30.12R $$ NCZ011>013-027>030-043-044-078>080-089-090>093-098-221300- COASTAL PLAIN CITY SKY/WX TMP DP RH WIND PRES REMARKS AHOSKIE SUNNY 56 51 82 N7 30.13R CLINTON MOSUNNY 61 53 75 N7 30.14R ELIZABETHTOWN CLOUDY 61 54 77 CALM 30.14R GOLDSBORO PTSUNNY 59 54 85 N6 30.12R GREENVILLE MOSUNNY 59 54 82 N7 30.14R HAVELOCK PTSUNNY 61 53 75 N13 30.12R KENANSVILLE CLOUDY 59 53 79 N8 30.14R KINSTON NOT AVBL NEW BERN CLOUDY 60 53 77 N10 30.13R RICHLANDS CLOUDY 61 52 72 NW6 30.13R ROCKY MOUNT SUNNY 60 51 72 N10 30.14R WASHINGTON MOSUNNY N/A N/A N/A N6 30.13R WHITEVILLE PTSUNNY 62 53 72 N6 30.12R $$ AMZ130-135-150-152-154-156-158-170-250-252-270-ANZ085-086-088-633-658-670-221300- MARINE OBSERVATIONS STATION/POSITION TIME TEMP WIND PRES WAVE SWELL AIR SEA DIR/SP/G HT/PER HT/PER (UTC) (F) (DEG/KT/KT) (MB) (FT/S) (FT/S) CHESAPEAKE LIGHT 1200 58 330/ 22/ 24 1018.5 64 E VA BEACH 1150 59 59 330/ 16/ 19 1016.5 6/ 7 2/13 DUCK 1100 57 66 310/ 13/ 16 1016.8 2 E DUCK 1111 64 N/A 4/ 7 OREGON INLET 1100 58 68 330/ 11/ 16 1017.8 13E OREGON INLT 1200 61 N/A 6/ 7 HATTERAS CG 1100 62 72 350/ 19/ 21 1017.0 DIAMOND BUOY 1150 63 75 360/ 17/ 23 1017.7 5/ 8 2/11 CAPE LOOKOUT 1200 62 10/ 12/ 17 1018.9 BEAUFORT LAB 1100 61 74 10/ 12/ 16 1017.3 27 SE WRIGHTSVLE 1100 62 77 40/ 17/ 23 N/A 5 SE WRIGHTSVLE 1108 63 76 10/ 17/ 21 1018.7 225 S CAPE HAT 1150 75 74 240/ 12/ 14 1016.2 4/ 7 3/ 7 41 SE CHARLESTON 1150 70 76 30/ 23/ 27 1016.7 7/ 5 2/ 9 $$

USA.gov is the U.S. government's official web portal to all federal, state and local government web resources and services.